COSMOS 1275 DEB, 39056

Orbit data source: Space-Track

COSMOS 1275 DEB, 39056 is space debris in LEO originally from a launch on Thu, 04 Jun 1981 UTC launched from the Plesetsk Missile And Space Complex (PKMTR). Debris objects in space refer to the collection of defunct objects orbiting the Earth. Examples of debris include non-operational satellites, rocket bodies, and fragments generated from explosions, collisions, or faulty payload assembly.

Loading next visibility...
Identifier
39056, 1981-053MU
Orbit
LEO
Country
Flag of CISCIS
Related business
Manufacturer
Unknown
Mission
Spacecraft
Bus & Motor
Unknown
Mass
Unknown
Launch date (UTC)
1981-06-04 (44 years ago)
Launch vehicle
Unknown
Launch site
Plesetsk Missile And Space Complex (PKMTR)
Object type
Payload
Rocket body
Debris
Shape & HBR
Unknown
Radar Cross Section
Small (<0.1 m²)

Expand to show TLE details & history
Last TLE update: 3 months ago

TLE from 3 months ago
0 COSMOS 1275 DEB
1 39056U 81053MU  25208.09842518  .00000839  00000-0  96227-3 0  9993
2 39056  82.9480 140.5698 0120821 261.8415  96.9017 13.65614297 35262
Epoch: 2025-07-27T02:21Z
TLE epoch observation values (Epoch: 2025-07-27T02:21:43.935Z)
Latitude
Longitude
160.11115°
Altitude
1,030.043 km
Speed
7.331 km/s
True Right ascension
09h 22m 16s
True Declination
0° 00' 00"
Sunlit
Object was in daylight at epoch
Visualization orbit readout
Latitude
Unknown
Longitude
Unknown
Altitude
Unknown
Speed
Unknown
Apparent Right ascension
Unknown
Apparent Declination
Unknown
Sunlit
N/A
Visualization observer readout
Local Sidereal Time
21:06:32
Azimuth
Unknown
Elevation
Unknown
Doppler factor
Unknown
Orbital elements
Apogee altitude
1,101.814 km
Perigee altitude
923.225 km
Semi-major axis
7,390.656 km
Eccentricity
0.01208
Inclination
82.948°
RAAN
140.5698°
Arg. of periapsis
261.8415°
True anomaly
98.27355°
Mean anomaly
96.9017°
Eccentric anomaly
97.58789°
Mean motion
3.41601 °/min
Orbital period
105.39 mins
BSTAR
0.00096227
Loading maneuver chart data...
Computing Atmospheric mass density...
Loading historical data...
Loading historical data...
Loading historical data...
Loading historical data...
Loading historical data...
Loading historical data...
Loading historical data...

Documentation

Showing up to 5 results
|